AAL808 KFLL-KPHL

Flight info

Callsign AAL808
Flight time N/A
Altitude 35000
Route FEALX2 ETECK PELCN Y309 FLRDA IDOLS SKARP Q101 KALDA ZJAAY JIIMS4
Aircraft B738/M-SDE2E3FGHIRWXY/LB1

Departure

Time 2026-05-06 17:04
Airport Fort Lauderdale Hollywood International Airport (KFLL)

Arrival

Time N/A
Airport Philadelphia International Airport (KPHL)
Time Latitude Longitude Altitude Speed Heading
2026-05-06 16:51 26.07345 -80.14602 18 ft 0 kts 208°
2026-05-06 16:56 26.07348 -80.14601 18 ft 2 kts 208°
2026-05-06 16:56 26.07362 -80.14592 19 ft 2 kts 210°
2026-05-06 16:57 26.07376 -80.14583 20 ft 2 kts 213°
2026-05-06 16:57 26.07390 -80.14572 21 ft 2 kts 218°
2026-05-06 16:57 26.07402 -80.14560 19 ft 2 kts 232°
2026-05-06 16:57 26.07409 -80.14543 22 ft 2 kts 278°
2026-05-06 16:58 26.07407 -80.14534 22 ft 0 kts 291°
2026-05-06 17:01 26.07430 -80.14590 20 ft 16 kts 295°
2026-05-06 17:01 26.07484 -80.14749 16 ft 29 kts 280°
2026-05-06 17:02 26.07488 -80.14994 14 ft 33 kts 270°
2026-05-06 17:02 26.07491 -80.15259 11 ft 37 kts 270°
2026-05-06 17:02 26.07492 -80.15577 13 ft 44 kts 270°
2026-05-06 17:02 26.07495 -80.15938 16 ft 49 kts 270°
2026-05-06 17:03 26.07497 -80.16333 17 ft 53 kts 270°
2026-05-06 17:03 26.07516 -80.16631 17 ft 19 kts 316°
2026-05-06 17:03 26.07629 -80.16644 15 ft 20 kts
2026-05-06 17:03 26.07695 -80.16513 16 ft 44 kts 90°
2026-05-06 17:04 26.07691 -80.15863 16 ft 123 kts 90°
2026-05-06 17:04 26.07687 -80.14675 186 ft 174 kts 90°
2026-05-06 17:04 26.07667 -80.13267 1096 ft 187 kts 89°
2026-05-06 17:04 26.07669 -80.11737 1889 ft 202 kts 86°
2026-05-06 17:05 26.07719 -80.10092 2281 ft 230 kts 86°
2026-05-06 17:05 26.07763 -80.08207 2495 ft 256 kts 88°
2026-05-06 17:05 26.07790 -80.06188 3128 ft 265 kts 88°
2026-05-06 17:05 26.07810 -80.04119 3874 ft 270 kts 88°
2026-05-06 17:06 26.07832 -80.02016 4637 ft 274 kts 86°
2026-05-06 17:06 26.08321 -79.99972 5360 ft 277 kts 59°
2026-05-06 17:06 26.09416 -79.98197 6116 ft 281 kts 53°
2026-05-06 17:06 26.10594 -79.96433 6798 ft 286 kts 52°
2026-05-06 17:07 26.11788 -79.94646 7534 ft 289 kts 52°
2026-05-06 17:07 26.12988 -79.92832 8213 ft 294 kts 52°
2026-05-06 17:07 26.14207 -79.90976 8905 ft 298 kts 52°
2026-05-06 17:07 26.15437 -79.89096 9623 ft 302 kts 52°
2026-05-06 17:08 26.16682 -79.87192 10295 ft 307 kts 52°
2026-05-06 17:08 26.17972 -79.85219 10570 ft 326 kts 52°
2026-05-06 17:08 26.19353 -79.83107 10736 ft 348 kts 52°
2026-05-06 17:08 26.20816 -79.80867 10910 ft 367 kts 52°
2026-05-06 17:09 26.22346 -79.78520 11272 ft 378 kts 52°
2026-05-06 17:09 26.23873 -79.76172 11830 ft 381 kts 52°
2026-05-06 17:09 26.25433 -79.73773 12438 ft 384 kts 52°
2026-05-06 17:09 26.27007 -79.71355 13033 ft 387 kts 52°
2026-05-06 17:10 26.28613 -79.68887 13600 ft 390 kts 51°
2026-05-06 17:10 26.30265 -79.66522 14121 ft 392 kts 46°
2026-05-06 17:10 26.32131 -79.64294 14623 ft 394 kts 42°
2026-05-06 17:10 26.34072 -79.62134 15169 ft 395 kts 41°
2026-05-06 17:11 26.36034 -79.59973 15690 ft 397 kts 41°
2026-05-06 17:11 26.37998 -79.57787 16172 ft 401 kts 41°
2026-05-06 17:11 26.39962 -79.55569 16663 ft 403 kts 41°
2026-05-06 17:11 26.41928 -79.53324 17167 ft 406 kts 41°
2026-05-06 17:12 26.43903 -79.51054 17650 ft 409 kts 41°
2026-05-06 17:12 26.45887 -79.48765 18116 ft 412 kts 41°
2026-05-06 17:12 26.47886 -79.46456 18550 ft 414 kts 41°
2026-05-06 17:12 26.49897 -79.44132 18942 ft 417 kts 41°
2026-05-06 17:13 26.51895 -79.41824 19312 ft 420 kts 41°
2026-05-06 17:13 26.53939 -79.39462 19683 ft 423 kts 41°
2026-05-06 17:13 26.56097 -79.37235 20024 ft 420 kts 30°
2026-05-06 17:13 26.58559 -79.35510 20436 ft 418 kts 26°
2026-05-06 17:14 26.61065 -79.33849 20820 ft 420 kts 25°
2026-05-06 17:14 26.63597 -79.32182 21174 ft 423 kts 25°
2026-05-06 17:14 26.66139 -79.30498 21534 ft 426 kts 25°
2026-05-06 17:14 26.68694 -79.28788 21901 ft 428 kts 25°
2026-05-06 17:15 26.71215 -79.27087 22251 ft 430 kts 25°
2026-05-06 17:15 26.73790 -79.25340 22587 ft 433 kts 25°
2026-05-06 17:15 26.76376 -79.23580 22928 ft 435 kts 25°
2026-05-06 17:15 26.78963 -79.21814 23273 ft 437 kts 25°
2026-05-06 17:16 26.81565 -79.20037 23599 ft 439 kts 25°
2026-05-06 17:16 26.84188 -79.18245 23878 ft 442 kts 25°
2026-05-06 17:16 26.86815 -79.16449 24161 ft 443 kts 25°
2026-05-06 17:16 26.89446 -79.14649 24474 ft 443 kts 25°
2026-05-06 17:17 26.92081 -79.12845 24767 ft 445 kts 25°
2026-05-06 17:17 26.94726 -79.11035 25040 ft 446 kts 25°
2026-05-06 17:17 26.97376 -79.09221 25315 ft 447 kts 25°
2026-05-06 17:17 27.00036 -79.07398 25592 ft 449 kts 25°
2026-05-06 17:18 27.02706 -79.05568 25868 ft 450 kts 25°
2026-05-06 17:18 27.05347 -79.03757 26136 ft 451 kts 25°
2026-05-06 17:18 27.08027 -79.01917 26400 ft 452 kts 25°
2026-05-06 17:18 27.10714 -79.00072 26679 ft 453 kts 25°
2026-05-06 17:19 27.13407 -78.98221 26955 ft 454 kts 25°
2026-05-06 17:19 27.16104 -78.96366 27227 ft 455 kts 25°
2026-05-06 17:19 27.18809 -78.94506 27487 ft 456 kts 25°
2026-05-06 17:19 27.21520 -78.92640 27756 ft 457 kts 25°
2026-05-06 17:20 27.24231 -78.90772 28009 ft 458 kts 25°
2026-05-06 17:20 27.26953 -78.88896 28261 ft 459 kts 25°
2026-05-06 17:20 27.29677 -78.87018 28498 ft 460 kts 24°
2026-05-06 17:20 27.32407 -78.85134 28748 ft 460 kts 24°
2026-05-06 17:21 27.35143 -78.83245 28982 ft 461 kts 24°
2026-05-06 17:21 27.37883 -78.81352 29270 ft 461 kts 24°
2026-05-06 17:21 27.40708 -78.79762 29597 ft 447 kts 11°
2026-05-06 17:21 27.43697 -78.79055 30006 ft 434 kts
2026-05-06 17:22 27.46644 -78.78633 30378 ft 431 kts
2026-05-06 17:22 27.49609 -78.78239 30673 ft 429 kts
2026-05-06 17:22 27.52576 -78.77847 30963 ft 428 kts
2026-05-06 17:22 27.55524 -78.77449 31283 ft 426 kts
2026-05-06 17:23 27.58460 -78.77040 31623 ft 424 kts
2026-05-06 17:23 27.61377 -78.76624 31948 ft 422 kts
2026-05-06 17:23 27.64279 -78.76203 32267 ft 420 kts
2026-05-06 17:23 27.67173 -78.75781 32554 ft 419 kts
2026-05-06 17:24 27.70059 -78.75358 32842 ft 417 kts
2026-05-06 17:24 27.72929 -78.74936 33156 ft 415 kts
2026-05-06 17:24 27.75794 -78.74514 33462 ft 413 kts
2026-05-06 17:24 27.78644 -78.74095 33726 ft 413 kts
2026-05-06 17:25 27.81483 -78.73677 33989 ft 411 kts
2026-05-06 17:25 27.84315 -78.73261 34245 ft 410 kts 360°
2026-05-06 17:25 27.87143 -78.72845 34416 ft 410 kts 360°
2026-05-06 17:25 27.89983 -78.72428 34561 ft 411 kts 360°
2026-05-06 17:26 27.92824 -78.72010 34737 ft 411 kts 360°
2026-05-06 17:26 27.95653 -78.71593 34969 ft 410 kts 360°
2026-05-06 17:26 27.98443 -78.71180 35117 ft 410 kts 360°
2026-05-06 17:27 28.04124 -78.70344 35115 ft 412 kts 360°
2026-05-06 17:27 28.09778 -78.69506 35117 ft 408 kts 360°
2026-05-06 17:28 28.15382 -78.68675 35125 ft 405 kts 359°
2026-05-06 17:28 28.20954 -78.67850 35115 ft 403 kts 359°
2026-05-06 17:29 28.26510 -78.67027 35127 ft 402 kts 359°
2026-05-06 17:29 28.32061 -78.66205 35120 ft 403 kts 359°
2026-05-06 17:30 28.37637 -78.65378 35131 ft 405 kts 359°
2026-05-06 17:30 28.43238 -78.64546 35124 ft 407 kts 359°
2026-05-06 17:31 28.48835 -78.63713 35131 ft 409 kts 359°
2026-05-06 17:31 28.54500 -78.62868 35122 ft 411 kts 359°
2026-05-06 17:32 28.60194 -78.62018 35126 ft 413 kts 360°
2026-05-06 17:32 28.65893 -78.61166 35122 ft 414 kts 360°
2026-05-06 17:33 28.71611 -78.60310 35130 ft 414 kts 360°
2026-05-06 17:33 28.77289 -78.59459 35118 ft 414 kts 360°
2026-05-06 17:34 28.82994 -78.58603 35123 ft 413 kts 359°
2026-05-06 17:34 28.88690 -78.57748 35118 ft 412 kts 359°
2026-05-06 17:35 28.94367 -78.56895 35128 ft 411 kts 359°
2026-05-06 17:35 29.00027 -78.56044 35117 ft 410 kts 359°
2026-05-06 17:36 29.08451 -78.54776 35130 ft 409 kts 359°
2026-05-06 17:36 29.14086 -78.53926 35127 ft 408 kts 359°
2026-05-06 17:37 29.19719 -78.53076 35130 ft 408 kts 359°
2026-05-06 17:37 29.25355 -78.52225 35125 ft 408 kts 359°
2026-05-06 17:38 29.30992 -78.51372 35129 ft 409 kts 359°
2026-05-06 17:38 29.36639 -78.50516 35124 ft 409 kts 359°
2026-05-06 17:39 29.42292 -78.49659 35132 ft 410 kts 359°
2026-05-06 17:39 29.47927 -78.48803 35128 ft 411 kts 359°
2026-05-06 17:40 29.53600 -78.47959 35134 ft 411 kts 359°
2026-05-06 17:40 29.59289 -78.47126 35124 ft 412 kts 359°
2026-05-06 17:41 29.64982 -78.46290 35129 ft 413 kts 359°
2026-05-06 17:41 29.70682 -78.45450 35127 ft 413 kts 359°
2026-05-06 17:42 29.76389 -78.44607 35129 ft 414 kts 359°
2026-05-06 17:42 29.82098 -78.43763 35121 ft 414 kts 359°
2026-05-06 17:43 29.87808 -78.42917 35127 ft 414 kts 359°
2026-05-06 17:43 29.93492 -78.42075 35123 ft 414 kts 359°
2026-05-06 17:44 29.99206 -78.41226 35127 ft 414 kts 359°
2026-05-06 17:44 30.04927 -78.40376 35127 ft 414 kts 359°
2026-05-06 17:45 30.09672 -78.39670 35131 ft 414 kts 359°
2026-05-06 17:45 30.15389 -78.38818 35125 ft 414 kts 359°
2026-05-06 17:46 30.21105 -78.37954 35129 ft 414 kts 359°
2026-05-06 17:46 30.26822 -78.37088 35119 ft 414 kts 359°
2026-05-06 17:47 30.32542 -78.36220 35125 ft 414 kts 359°
2026-05-06 17:47 30.38259 -78.35354 35120 ft 414 kts 359°
2026-05-06 17:48 30.43973 -78.34399 35059 ft 417 kts
2026-05-06 17:48 30.49647 -78.33090 35086 ft 419 kts
2026-05-06 17:49 30.55388 -78.31711 35125 ft 424 kts
2026-05-06 17:49 30.61195 -78.30345 35136 ft 427 kts
2026-05-06 17:50 30.67037 -78.28985 35134 ft 429 kts
2026-05-06 17:50 30.72901 -78.27623 35132 ft 430 kts
2026-05-06 17:51 30.78766 -78.26258 35124 ft 429 kts
2026-05-06 17:51 30.84598 -78.24899 35127 ft 427 kts
2026-05-06 17:52 30.90419 -78.23542 35125 ft 424 kts
2026-05-06 17:52 30.96197 -78.22206 35126 ft 422 kts
2026-05-06 17:53 31.01951 -78.20928 35125 ft 420 kts
2026-05-06 17:53 31.07649 -78.19668 35126 ft 418 kts
2026-05-06 17:54 31.13364 -78.18396 35126 ft 418 kts
2026-05-06 17:54 31.19085 -78.17119 35130 ft 418 kts
2026-05-06 17:55 31.24812 -78.15838 35128 ft 419 kts
2026-05-06 17:55 31.30551 -78.14552 35130 ft 420 kts
2026-05-06 17:56 31.36304 -78.13261 35129 ft 422 kts
2026-05-06 17:56 31.42043 -78.11972 35134 ft 423 kts
2026-05-06 17:57 31.47840 -78.10616 35135 ft 425 kts
2026-05-06 17:57 31.53651 -78.09201 35128 ft 426 kts
2026-05-06 17:58 31.59464 -78.07783 35127 ft 426 kts
2026-05-06 17:58 31.65273 -78.06370 35127 ft 426 kts
2026-05-06 17:59 31.71080 -78.04960 35124 ft 425 kts
2026-05-06 17:59 31.76868 -78.03554 35123 ft 424 kts
2026-05-06 18:00 31.82639 -78.02150 35124 ft 423 kts
2026-05-06 18:00 31.88355 -78.00759 35123 ft 421 kts
2026-05-06 18:01 31.94089 -77.99361 35123 ft 420 kts
2026-05-06 18:01 31.99819 -77.97963 35127 ft 419 kts
2026-05-06 18:02 32.05521 -77.96570 35124 ft 418 kts
2026-05-06 18:02 32.11178 -77.95186 35121 ft 417 kts
2026-05-06 18:03 32.16866 -77.93793 35123 ft 417 kts
2026-05-06 18:03 32.22554 -77.92398 35120 ft 417 kts
2026-05-06 18:04 32.28238 -77.91002 35120 ft 417 kts
2026-05-06 18:04 32.33931 -77.89602 35118 ft 418 kts
2026-05-06 18:05 32.39624 -77.88201 35120 ft 418 kts
2026-05-06 18:05 32.45329 -77.86794 35117 ft 419 kts
2026-05-06 18:06 32.51049 -77.85382 35119 ft 420 kts
2026-05-06 18:06 32.56772 -77.83968 35118 ft 421 kts
2026-05-06 18:07 32.62513 -77.82546 35115 ft 421 kts
2026-05-06 18:07 32.68220 -77.81131 35115 ft 422 kts
2026-05-06 18:08 32.73985 -77.79700 35112 ft 423 kts
2026-05-06 18:08 32.79757 -77.78265 35111 ft 423 kts
2026-05-06 18:09 32.85530 -77.76828 35110 ft 424 kts
2026-05-06 18:09 32.91308 -77.75389 35109 ft 424 kts
2026-05-06 18:10 32.97094 -77.73945 35110 ft 425 kts
2026-05-06 18:10 33.02856 -77.72505 35112 ft 425 kts
2026-05-06 18:11 33.08658 -77.71054 35109 ft 426 kts
2026-05-06 18:11 33.14470 -77.69598 35107 ft 427 kts
2026-05-06 18:12 33.20284 -77.68139 35099 ft 427 kts
2026-05-06 18:12 33.26109 -77.66676 35103 ft 428 kts
2026-05-06 18:13 33.31940 -77.65209 35100 ft 429 kts
2026-05-06 18:13 33.37784 -77.63737 35105 ft 429 kts
2026-05-06 18:14 33.43601 -77.62269 35106 ft 430 kts
2026-05-06 18:14 33.49462 -77.60788 35100 ft 431 kts
2026-05-06 18:15 33.55332 -77.59303 35103 ft 431 kts
2026-05-06 18:15 33.61220 -77.57891 35095 ft 429 kts
2026-05-06 18:16 33.67114 -77.56780 35096 ft 429 kts 359°
2026-05-06 18:16 33.73014 -77.55702 35092 ft 429 kts 359°
2026-05-06 18:17 33.78916 -77.54587 35088 ft 430 kts 360°
2026-05-06 18:17 33.84825 -77.53448 35086 ft 430 kts 360°
2026-05-06 18:18 33.90726 -77.52303 35083 ft 430 kts 360°
2026-05-06 18:18 33.96631 -77.51156 35082 ft 429 kts 360°
2026-05-06 18:19 34.02531 -77.50009 35077 ft 429 kts 360°
2026-05-06 18:19 34.08388 -77.48869 35072 ft 429 kts 360°
2026-05-06 18:20 34.14314 -77.47715 35074 ft 428 kts 360°
2026-05-06 18:20 34.20159 -77.46574 35071 ft 428 kts 359°
2026-05-06 18:21 34.26046 -77.45424 35067 ft 428 kts 360°
2026-05-06 18:21 34.31930 -77.44272 35068 ft 428 kts 359°
2026-05-06 18:22 34.37800 -77.43122 35062 ft 428 kts 359°
2026-05-06 18:22 34.43678 -77.41969 35059 ft 428 kts 359°
2026-05-06 18:23 34.49549 -77.40381 35052 ft 442 kts 10°
2026-05-06 18:23 34.55192 -77.37110 35054 ft 453 kts 17°
2026-05-06 18:24 34.60787 -77.33567 35049 ft 454 kts 18°
2026-05-06 18:24 34.66396 -77.30047 35050 ft 454 kts 17°
2026-05-06 18:25 34.71985 -77.26579 35052 ft 454 kts 17°
2026-05-06 18:25 34.77623 -77.23089 35051 ft 455 kts 17°
2026-05-06 18:26 34.83258 -77.19597 35071 ft 455 kts 17°
2026-05-06 18:26 34.88902 -77.16092 35050 ft 455 kts 17°
2026-05-06 18:27 34.94544 -77.12582 35050 ft 455 kts 17°
2026-05-06 18:27 35.00187 -77.09065 35048 ft 455 kts 16°
2026-05-06 18:28 35.05821 -77.05549 35046 ft 455 kts 17°
2026-05-06 18:28 35.11454 -77.02028 35048 ft 455 kts 17°
2026-05-06 18:29 35.17053 -76.98522 35048 ft 455 kts 17°
2026-05-06 18:29 35.22685 -76.94991 35041 ft 455 kts 17°
2026-05-06 18:30 35.28335 -76.91496 35041 ft 454 kts 16°
2026-05-06 18:30 35.34004 -76.88068 35030 ft 455 kts 16°
2026-05-06 18:31 35.39681 -76.84631 35030 ft 456 kts 16°
2026-05-06 18:31 35.45369 -76.81168 35029 ft 457 kts 16°
2026-05-06 18:32 35.51063 -76.77691 35030 ft 458 kts 16°
2026-05-06 18:32 35.56739 -76.74218 35022 ft 459 kts 16°
2026-05-06 18:33 35.62465 -76.70708 35025 ft 460 kts 16°
2026-05-06 18:33 35.68203 -76.67187 35017 ft 461 kts 17°
2026-05-06 18:34 35.73013 -76.64230 35018 ft 462 kts 17°
2026-05-06 18:34 35.78763 -76.60690 35018 ft 462 kts 16°
2026-05-06 18:35 35.84521 -76.57139 35016 ft 463 kts 17°
2026-05-06 18:35 35.90250 -76.53596 35022 ft 464 kts 17°
2026-05-06 18:36 35.95971 -76.49815 35022 ft 467 kts 19°
2026-05-06 18:36 36.01664 -76.45923 35021 ft 468 kts 19°
2026-05-06 18:37 36.07363 -76.42037 35015 ft 468 kts 19°
2026-05-06 18:37 36.13065 -76.38170 35019 ft 468 kts 19°
2026-05-06 18:38 36.18743 -76.34322 35015 ft 468 kts 19°
2026-05-06 18:38 36.24459 -76.30445 35014 ft 469 kts 19°
2026-05-06 18:39 36.30174 -76.26559 35022 ft 469 kts 19°
2026-05-06 18:40 36.38766 -76.20705 35018 ft 470 kts 19°
2026-05-06 18:40 36.44504 -76.16787 35009 ft 471 kts 19°
2026-05-06 18:41 36.50254 -76.12853 35007 ft 471 kts 19°
2026-05-06 18:41 36.56008 -76.08910 35010 ft 472 kts 19°
2026-05-06 18:42 36.61758 -76.04964 34986 ft 472 kts 19°
2026-05-06 18:42 36.67476 -76.01032 34984 ft 473 kts 19°
2026-05-06 18:43 36.73230 -75.97068 34985 ft 472 kts 19°
2026-05-06 18:43 36.78987 -75.93095 34983 ft 472 kts 19°
2026-05-06 18:44 36.84731 -75.89124 34979 ft 472 kts 19°
2026-05-06 18:44 36.90476 -75.85146 34977 ft 472 kts 19°
2026-05-06 18:45 36.96211 -75.81168 34974 ft 471 kts 20°
2026-05-06 18:45 37.01943 -75.77186 34967 ft 471 kts 20°
2026-05-06 18:46 37.07851 -75.73994 34958 ft 452 kts
2026-05-06 18:46 37.13957 -75.72631 34957 ft 444 kts 359°
2026-05-06 18:47 37.20069 -75.71416 34960 ft 445 kts 359°
2026-05-06 18:47 37.26153 -75.70153 34956 ft 447 kts 360°
2026-05-06 18:48 37.32303 -75.68839 34959 ft 449 kts 360°
2026-05-06 18:48 37.38464 -75.67512 34959 ft 450 kts 360°
2026-05-06 18:49 37.44648 -75.66179 34961 ft 451 kts 360°
2026-05-06 18:49 37.50847 -75.64842 34955 ft 452 kts 360°
2026-05-06 18:50 37.57062 -75.63500 34957 ft 454 kts 360°
2026-05-06 18:50 37.63304 -75.62150 34949 ft 455 kts 360°
2026-05-06 18:51 37.69552 -75.61068 34943 ft 445 kts 351°
2026-05-06 18:51 37.72598 -75.61276 34956 ft 434 kts 344°
2026-05-06 18:51 37.75564 -75.61656 34951 ft 435 kts 344°
2026-05-06 18:52 37.81639 -75.62104 34945 ft 449 kts 356°
2026-05-06 18:52 37.84760 -75.61323 34966 ft 465 kts
2026-05-06 18:52 37.87792 -75.59703 34958 ft 483 kts 21°
2026-05-06 18:53 37.93411 -75.54843 34966 ft 492 kts 27°
2026-05-06 18:53 37.98974 -75.49801 34957 ft 491 kts 26°
2026-05-06 18:54 38.04605 -75.44896 34961 ft 490 kts 25°
2026-05-06 18:54 38.07504 -75.42724 34954 ft 477 kts 17°
2026-05-06 18:54 38.10434 -75.40942 34939 ft 458 kts 13°
2026-05-06 18:54 38.13298 -75.39332 34936 ft 443 kts 12°
2026-05-06 18:55 38.16085 -75.37792 34916 ft 429 kts 12°
2026-05-06 18:55 38.18776 -75.36289 34915 ft 416 kts 12°
2026-05-06 18:55 38.21411 -75.34796 34934 ft 416 kts 12°
2026-05-06 18:56 38.26732 -75.31743 34971 ft 428 kts 13°
2026-05-06 18:56 38.32231 -75.28527 34969 ft 439 kts 13°
2026-05-06 18:57 38.37798 -75.25233 34963 ft 443 kts 13°
2026-05-06 18:57 38.43393 -75.21919 34956 ft 444 kts 13°
2026-05-06 18:58 38.49011 -75.18590 34942 ft 444 kts 13°
2026-05-06 18:58 38.54603 -75.15274 34923 ft 442 kts 13°
2026-05-06 18:59 38.60119 -75.11926 34920 ft 442 kts 14°
2026-05-06 18:59 38.65599 -75.08378 34919 ft 440 kts 14°
2026-05-06 19:00 38.71049 -75.04869 34910 ft 437 kts 14°
2026-05-06 19:00 38.76481 -75.01388 34914 ft 436 kts 13°
2026-05-06 19:01 38.81913 -74.97901 34916 ft 436 kts 13°
2026-05-06 19:01 38.87345 -74.94405 34927 ft 437 kts 13°
2026-05-06 19:02 38.92789 -74.90893 34928 ft 439 kts 13°
2026-05-06 19:02 38.98259 -74.87356 34911 ft 441 kts 13°
2026-05-06 19:03 39.03718 -74.83820 34916 ft 443 kts 13°